owner,sensor,date,latitude,longitude,vertical_datum,sea_water_practical_salinity,qcFlag 
NERRS,ioos:station:NOAA.NERRS:gndbhwq:1,2015-05-01T00:00:00Z,30.4178,-88.4054,1.12,10.1,1111122 
NERRS,ioos:station:NOAA.NERRS:gndbhwq:1,2015-05-01T01:00:00Z,30.4178,-88.4054,1.03,9.9,1111122 
NERRS,ioos:station:NOAA.NERRS:gndbhwq:1,2015-05-01T02:00:00Z,30.4178,-88.4054,1.08,10.2,1111122 
NERRS,ioos:station:NOAA.NERRS:gndbhwq:1,2015-05-01T03:00:00Z,30.4178,-88.4054,1.06,10.2,1111122 
NERRS,ioos:station:NOAA.NERRS:gndbhwq:1,2015-05-01T04:00:00Z,30.4178,-88.4054,1.12,10.3,1111122 
NERRS,ioos:station:NOAA.NERRS:gndbhwq:1,2015-05-01T05:00:00Z,30.4178,-88.4054,1.14,10.3,1111122 
NERRS,ioos:station:NOAA.NERRS:gndbhwq:1,2015-05-01T06:00:00Z,30.4178,-88.4054,1.1,10.4,1111122 
NERRS,ioos:station:NOAA.NERRS:gndbhwq:1,2015-05-01T07:00:00Z,30.4178,-88.4054,1.09,10.2,1111122 
NERRS,ioos:station:NOAA.NERRS:gndbhwq:1,2015-05-01T08:00:00Z,30.4178,-88.4054,1.08,10.5,1111122 
NERRS,ioos:station:NOAA.NERRS:gndbhwq:1,2015-05-01T09:00:00Z,30.4178,-88.4054,1.09,10.4,1111122 
NERRS,ioos:station:NOAA.NERRS:gndbhwq:1,2015-05-01T10:00:00Z,30.4178,-88.4054,1.12,10.5,1111122 
NERRS,ioos:station:NOAA.NERRS:gndbhwq:1,2015-05-01T11:00:00Z,30.4178,-88.4054,1.18,10.8,1111122 
NERRS,ioos:station:NOAA.NERRS:gndbhwq:1,2015-05-01T12:00:00Z,30.4178,-88.4054,1.24,11.0,1111122 
NERRS,ioos:station:NOAA.NERRS:gndbhwq:1,2015-05-01T13:00:00Z,30.4178,-88.4054,1.23,11.1,1111122 
NERRS,ioos:station:NOAA.NERRS:gndbhwq:1,2015-05-01T14:00:00Z,30.4178,-88.4054,1.22,11.1,1111122 
NERRS,ioos:station:NOAA.NERRS:gndbhwq:1,2015-05-01T15:00:00Z,30.4178,-88.4054,1.2,11.1,1111122 
NERRS,ioos:station:NOAA.NERRS:gndbhwq:1,2015-05-01T16:00:00Z,30.4178,-88.4054,1.23,11.2,1111122 
NERRS,ioos:station:NOAA.NERRS:gndbhwq:1,2015-05-01T17:00:00Z,30.4178,-88.4054,1.21,11.3,1111122 
NERRS,ioos:station:NOAA.NERRS:gndbhwq:1,2015-05-01T18:00:00Z,30.4178,-88.4054,1.2,11.3,1111122 
NERRS,ioos:station:NOAA.NERRS:gndbhwq:1,2015-05-01T19:00:00Z,30.4178,-88.4054,1.14,11.3,1111122 
NERRS,ioos:station:NOAA.NERRS:gndbhwq:1,2015-05-01T20:00:00Z,30.4178,-88.4054,1.08,11.3,1111122 
NERRS,ioos:station:NOAA.NERRS:gndbhwq:1,2015-05-01T21:00:00Z,30.4178,-88.4054,1.06,11.4,1111122 
NERRS,ioos:station:NOAA.NERRS:gndbhwq:1,2015-05-01T22:00:00Z,30.4178,-88.4054,1.03,11.4,1111122 
NERRS,ioos:station:NOAA.NERRS:gndbhwq:1,2015-05-01T23:00:00Z,30.4178,-88.4054,1.04,11.4,1111122 
NERRS,ioos:station:NOAA.NERRS:gndbhwq:1,2015-05-02T00:00:00Z,30.4178,-88.4054,1.1,11.4,1111122 
NERRS,ioos:station:NOAA.NERRS:gndbhwq:1,2015-05-02T01:00:00Z,30.4178,-88.4054,1.09,11.4,1111122 
NERRS,ioos:station:NOAA.NERRS:gndbhwq:1,2015-05-02T02:00:00Z,30.4178,-88.4054,1.08,11.4,1111122 
NERRS,ioos:station:NOAA.NERRS:gndbhwq:1,2015-05-02T03:00:00Z,30.4178,-88.4054,1.09,11.5,1111122 
NERRS,ioos:station:NOAA.NERRS:gndbhwq:1,2015-05-02T04:00:00Z,30.4178,-88.4054,1.08,11.5,1111122 
NERRS,ioos:station:NOAA.NERRS:gndbhwq:1,2015-05-02T05:00:00Z,30.4178,-88.4054,1.12,11.5,1111122 
NERRS,ioos:station:NOAA.NERRS:gndbhwq:1,2015-05-02T06:00:00Z,30.4178,-88.4054,1.13,11.5,1111122 
NERRS,ioos:station:NOAA.NERRS:gndbhwq:1,2015-05-02T07:00:00Z,30.4178,-88.4054,1.15,11.5,1111122 
NERRS,ioos:station:NOAA.NERRS:gndbhwq:1,2015-05-02T08:00:00Z,30.4178,-88.4054,1.18,11.6,1111122 
NERRS,ioos:station:NOAA.NERRS:gndbhwq:1,2015-05-02T09:00:00Z,30.4178,-88.4054,1.22,11.7,1111122 
NERRS,ioos:station:NOAA.NERRS:gndbhwq:1,2015-05-02T10:00:00Z,30.4178,-88.4054,1.3,12.0,1111122 
NERRS,ioos:station:NOAA.NERRS:gndbhwq:1,2015-05-02T11:00:00Z,30.4178,-88.4054,1.36,12.3,1111122 
NERRS,ioos:station:NOAA.NERRS:gndbhwq:1,2015-05-02T12:00:00Z,30.4178,-88.4054,1.37,12.4,1111122 
NERRS,ioos:station:NOAA.NERRS:gndbhwq:1,2015-05-02T13:00:00Z,30.4178,-88.4054,1.4,12.7,1111122 
NERRS,ioos:station:NOAA.NERRS:gndbhwq:1,2015-05-02T14:00:00Z,30.4178,-88.4054,1.4,12.9,1111122 
NERRS,ioos:station:NOAA.NERRS:gndbhwq:1,2015-05-02T15:00:00Z,30.4178,-88.4054,1.41,13.0,1111122 
NERRS,ioos:station:NOAA.NERRS:gndbhwq:1,2015-05-02T16:00:00Z,30.4178,-88.4054,1.36,12.8,1111122 
NERRS,ioos:station:NOAA.NERRS:gndbhwq:1,2015-05-02T17:00:00Z,30.4178,-88.4054,1.34,12.6,1111122 
NERRS,ioos:station:NOAA.NERRS:gndbhwq:1,2015-05-02T18:00:00Z,30.4178,-88.4054,1.26,12.3,1111122 
NERRS,ioos:station:NOAA.NERRS:gndbhwq:1,2015-05-02T19:00:00Z,30.4178,-88.4054,1.19,12.2,1111122 
NERRS,ioos:station:NOAA.NERRS:gndbhwq:1,2015-05-02T20:00:00Z,30.4178,-88.4054,1.11,11.7,1111122 
NERRS,ioos:station:NOAA.NERRS:gndbhwq:1,2015-05-02T21:00:00Z,30.4178,-88.4054,1.07,11.8,1111122 
NERRS,ioos:station:NOAA.NERRS:gndbhwq:1,2015-05-02T22:00:00Z,30.4178,-88.4054,1.05,11.5,1111122 
NERRS,ioos:station:NOAA.NERRS:gndbhwq:1,2015-05-02T23:00:00Z,30.4178,-88.4054,1.06,11.6,1111122 
NERRS,ioos:station:NOAA.NERRS:gndbhwq:1,2015-05-03T00:00:00Z,30.4178,-88.4054,1.09,11.5,1111122 
NERRS,ioos:station:NOAA.NERRS:gndbhwq:1,2015-05-03T01:00:00Z,30.4178,-88.4054,1.12,11.1,1111122 
NERRS,ioos:station:NOAA.NERRS:gndbhwq:1,2015-05-03T02:00:00Z,30.4178,-88.4054,1.13,11.5,1111122 
NERRS,ioos:station:NOAA.NERRS:gndbhwq:1,2015-05-03T03:00:00Z,30.4178,-88.4054,1.16,11.4,1111122 
NERRS,ioos:station:NOAA.NERRS:gndbhwq:1,2015-05-03T04:00:00Z,30.4178,-88.4054,1.19,11.7,1111122 
NERRS,ioos:station:NOAA.NERRS:gndbhwq:1,2015-05-03T06:00:00Z,30.4178,-88.4054,1.25,12.0,1111122 
NERRS,ioos:station:NOAA.NERRS:gndbhwq:1,2015-05-03T07:00:00Z,30.4178,-88.4054,1.26,12.0,1111122 
NERRS,ioos:station:NOAA.NERRS:gndbhwq:1,2015-05-03T08:00:00Z,30.4178,-88.4054,1.26,11.9,1111122 
NERRS,ioos:station:NOAA.NERRS:gndbhwq:1,2015-05-03T09:00:00Z,30.4178,-88.4054,1.3,12.2,1111122 
NERRS,ioos:station:NOAA.NERRS:gndbhwq:1,2015-05-03T10:00:00Z,30.4178,-88.4054,1.35,12.1,1111122 
NERRS,ioos:station:NOAA.NERRS:gndbhwq:1,2015-05-03T11:00:00Z,30.4178,-88.4054,1.4,12.8,1111122 
NERRS,ioos:station:NOAA.NERRS:gndbhwq:1,2015-05-03T12:00:00Z,30.4178,-88.4054,1.43,13.0,1111122 
NERRS,ioos:station:NOAA.NERRS:gndbhwq:1,2015-05-03T13:00:00Z,30.4178,-88.4054,1.47,13.3,1111122 
NERRS,ioos:station:NOAA.NERRS:gndbhwq:1,2015-05-03T14:00:00Z,30.4178,-88.4054,1.49,13.5,1111122 
NERRS,ioos:station:NOAA.NERRS:gndbhwq:1,2015-05-03T15:00:00Z,30.4178,-88.4054,1.49,13.7,1111122 
NERRS,ioos:station:NOAA.NERRS:gndbhwq:1,2015-05-03T16:00:00Z,30.4178,-88.4054,1.46,14.1,1111122 
NERRS,ioos:station:NOAA.NERRS:gndbhwq:1,2015-05-03T17:00:00Z,30.4178,-88.4054,1.43,13.2,1111122 
NERRS,ioos:station:NOAA.NERRS:gndbhwq:1,2015-05-03T18:00:00Z,30.4178,-88.4054,1.39,13.2,1111122 
NERRS,ioos:station:NOAA.NERRS:gndbhwq:1,2015-05-03T19:00:00Z,30.4178,-88.4054,1.31,12.7,1111122 
NERRS,ioos:station:NOAA.NERRS:gndbhwq:1,2015-05-03T20:00:00Z,30.4178,-88.4054,1.21,12.7,1111122 
NERRS,ioos:station:NOAA.NERRS:gndbhwq:1,2015-05-03T21:00:00Z,30.4178,-88.4054,1.13,12.0,1111122 
NERRS,ioos:station:NOAA.NERRS:gndbhwq:1,2015-05-03T22:00:00Z,30.4178,-88.4054,1.08,11.9,1111122 
NERRS,ioos:station:NOAA.NERRS:gndbhwq:1,2015-05-03T23:00:00Z,30.4178,-88.4054,1.05,11.5,1111122 
NERRS,ioos:station:NOAA.NERRS:gndbhwq:1,2015-05-04T00:00:00Z,30.4178,-88.4054,1.11,10.8,1111122 
NERRS,ioos:station:NOAA.NERRS:gndbhwq:1,2015-05-04T01:00:00Z,30.4178,-88.4054,1.11,11.0,1111122 
NERRS,ioos:station:NOAA.NERRS:gndbhwq:1,2015-05-04T02:00:00Z,30.4178,-88.4054,1.21,10.9,1111122 
NERRS,ioos:station:NOAA.NERRS:gndbhwq:1,2015-05-04T03:00:00Z,30.4178,-88.4054,1.18,11.6,1111122 
NERRS,ioos:station:NOAA.NERRS:gndbhwq:1,2015-05-04T04:00:00Z,30.4178,-88.4054,1.34,12.1,1111122 
NERRS,ioos:station:NOAA.NERRS:gndbhwq:1,2015-05-04T05:00:00Z,30.4178,-88.4054,1.39,12.5,1111122 
NERRS,ioos:station:NOAA.NERRS:gndbhwq:1,2015-05-04T06:00:00Z,30.4178,-88.4054,1.39,12.0,1111122 
NERRS,ioos:station:NOAA.NERRS:gndbhwq:1,2015-05-04T07:00:00Z,30.4178,-88.4054,1.41,12.0,1111122 
NERRS,ioos:station:NOAA.NERRS:gndbhwq:1,2015-05-04T08:00:00Z,30.4178,-88.4054,1.38,12.0,1111122 
NERRS,ioos:station:NOAA.NERRS:gndbhwq:1,2015-05-04T09:00:00Z,30.4178,-88.4054,1.43,11.8,1111122 
NERRS,ioos:station:NOAA.NERRS:gndbhwq:1,2015-05-04T10:00:00Z,30.4178,-88.4054,1.44,11.8,1111122 
NERRS,ioos:station:NOAA.NERRS:gndbhwq:1,2015-05-04T11:00:00Z,30.4178,-88.4054,1.47,11.7,1111122 
NERRS,ioos:station:NOAA.NERRS:gndbhwq:1,2015-05-04T12:00:00Z,30.4178,-88.4054,1.56,13.0,1111122 
NERRS,ioos:station:NOAA.NERRS:gndbhwq:1,2015-05-04T13:00:00Z,30.4178,-88.4054,1.61,13.4,1111122 
NERRS,ioos:station:NOAA.NERRS:gndbhwq:1,2015-05-04T14:00:00Z,30.4178,-88.4054,1.64,13.0,1111122 
NERRS,ioos:station:NOAA.NERRS:gndbhwq:1,2015-05-04T15:00:00Z,30.4178,-88.4054,1.66,13.5,1111122 
NERRS,ioos:station:NOAA.NERRS:gndbhwq:1,2015-05-04T16:00:00Z,30.4178,-88.4054,1.67,13.3,1111122 
NERRS,ioos:station:NOAA.NERRS:gndbhwq:1,2015-05-04T17:00:00Z,30.4178,-88.4054,1.62,13.2,1111122 
NERRS,ioos:station:NOAA.NERRS:gndbhwq:1,2015-05-04T18:00:00Z,30.4178,-88.4054,1.62,12.8,1111122 
NERRS,ioos:station:NOAA.NERRS:gndbhwq:1,2015-05-04T19:00:00Z,30.4178,-88.4054,-1.0,12.6,1111122 
NERRS,ioos:station:NOAA.NERRS:gndbhwq:1,2015-05-04T20:00:00Z,30.4178,-88.4054,1.47,11.3,1111122 
NERRS,ioos:station:NOAA.NERRS:gndbhwq:1,2015-05-04T21:00:00Z,30.4178,-88.4054,1.35,10.4,1111122 
NERRS,ioos:station:NOAA.NERRS:gndbhwq:1,2015-05-04T22:00:00Z,30.4178,-88.4054,1.31,10.1,1111122 
NERRS,ioos:station:NOAA.NERRS:gndbhwq:1,2015-05-04T23:00:00Z,30.4178,-88.4054,1.18,9.3,1111122 
NERRS,ioos:station:NOAA.NERRS:gndbhwq:1,2015-05-05T00:00:00Z,30.4178,-88.4054,1.24,9.1,1111122 
NERRS,ioos:station:NOAA.NERRS:gndbhwq:1,2015-05-05T01:00:00Z,30.4178,-88.4054,1.21,9.8,1111122 
NERRS,ioos:station:NOAA.NERRS:gndbhwq:1,2015-05-05T02:00:00Z,30.4178,-88.4054,1.31,10.0,1111122 
NERRS,ioos:station:NOAA.NERRS:gndbhwq:1,2015-05-05T03:00:00Z,30.4178,-88.4054,1.29,9.4,1111122 
NERRS,ioos:station:NOAA.NERRS:gndbhwq:1,2015-05-05T04:00:00Z,30.4178,-88.4054,1.3,10.3,1111122 
NERRS,ioos:station:NOAA.NERRS:gndbhwq:1,2015-05-05T05:00:00Z,30.4178,-88.4054,1.29,10.7,1111122 
NERRS,ioos:station:NOAA.NERRS:gndbhwq:1,2015-05-05T06:00:00Z,30.4178,-88.4054,1.33,11.1,1111122 
NERRS,ioos:station:NOAA.NERRS:gndbhwq:1,2015-05-05T07:00:00Z,30.4178,-88.4054,1.31,11.6,1111122 
NERRS,ioos:station:NOAA.NERRS:gndbhwq:1,2015-05-05T08:00:00Z,30.4178,-88.4054,1.41,11.9,1111122 
NERRS,ioos:station:NOAA.NERRS:gndbhwq:1,2015-05-05T09:00:00Z,30.4178,-88.4054,1.38,12.2,1111122 
NERRS,ioos:station:NOAA.NERRS:gndbhwq:1,2015-05-05T10:00:00Z,30.4178,-88.4054,1.45,12.3,1111122 
NERRS,ioos:station:NOAA.NERRS:gndbhwq:1,2015-05-05T11:00:00Z,30.4178,-88.4054,1.46,12.8,1111122 
NERRS,ioos:station:NOAA.NERRS:gndbhwq:1,2015-05-05T12:00:00Z,30.4178,-88.4054,1.51,12.9,1111122 
NERRS,ioos:station:NOAA.NERRS:gndbhwq:1,2015-05-05T13:00:00Z,30.4178,-88.4054,1.6,12.9,1111122 
NERRS,ioos:station:NOAA.NERRS:gndbhwq:1,2015-05-05T14:00:00Z,30.4178,-88.4054,1.66,13.1,1111122 
NERRS,ioos:station:NOAA.NERRS:gndbhwq:1,2015-05-05T15:00:00Z,30.4178,-88.4054,1.73,13.2,1111122 
NERRS,ioos:station:NOAA.NERRS:gndbhwq:1,2015-05-05T16:00:00Z,30.4178,-88.4054,1.73,13.1,1111122 
NERRS,ioos:station:NOAA.NERRS:gndbhwq:1,2015-05-05T17:00:00Z,30.4178,-88.4054,1.74,13.0,1111122 
NERRS,ioos:station:NOAA.NERRS:gndbhwq:1,2015-05-05T18:00:00Z,30.4178,-88.4054,1.71,12.8,1111122 
NERRS,ioos:station:NOAA.NERRS:gndbhwq:1,2015-05-05T19:00:00Z,30.4178,-88.4054,1.69,11.9,1111122 
NERRS,ioos:station:NOAA.NERRS:gndbhwq:1,2015-05-05T20:00:00Z,30.4178,-88.4054,1.58,11.8,1111122 
NERRS,ioos:station:NOAA.NERRS:gndbhwq:1,2015-05-05T21:00:00Z,30.4178,-88.4054,1.45,11.1,1111122 
NERRS,ioos:station:NOAA.NERRS:gndbhwq:1,2015-05-05T22:00:00Z,30.4178,-88.4054,1.33,10.9,1111122 
NERRS,ioos:station:NOAA.NERRS:gndbhwq:1,2015-05-05T23:00:00Z,30.4178,-88.4054,1.25,11.2,1111122 
NERRS,ioos:station:NOAA.NERRS:gndbhwq:1,2015-05-06T00:00:00Z,30.4178,-88.4054,1.22,11.9,1111122 
NERRS,ioos:station:NOAA.NERRS:gndbhwq:1,2015-05-06T01:00:00Z,30.4178,-88.4054,1.22,12.2,1111122 
NERRS,ioos:station:NOAA.NERRS:gndbhwq:1,2015-05-06T02:00:00Z,30.4178,-88.4054,1.26,11.9,1111122 
NERRS,ioos:station:NOAA.NERRS:gndbhwq:1,2015-05-06T03:00:00Z,30.4178,-88.4054,1.26,11.7,1111122 
NERRS,ioos:station:NOAA.NERRS:gndbhwq:1,2015-05-06T04:00:00Z,30.4178,-88.4054,1.25,12.0,1111122 
NERRS,ioos:station:NOAA.NERRS:gndbhwq:1,2015-05-06T05:00:00Z,30.4178,-88.4054,1.28,12.1,1111122 
NERRS,ioos:station:NOAA.NERRS:gndbhwq:1,2015-05-06T06:00:00Z,30.4178,-88.4054,1.28,12.5,1111122 
NERRS,ioos:station:NOAA.NERRS:gndbhwq:1,2015-05-06T07:00:00Z,30.4178,-88.4054,1.34,12.4,1111122 
NERRS,ioos:station:NOAA.NERRS:gndbhwq:1,2015-05-06T08:00:00Z,30.4178,-88.4054,1.36,12.6,1111122 
NERRS,ioos:station:NOAA.NERRS:gndbhwq:1,2015-05-06T09:00:00Z,30.4178,-88.4054,1.4,12.7,1111122 
NERRS,ioos:station:NOAA.NERRS:gndbhwq:1,2015-05-06T10:00:00Z,30.4178,-88.4054,1.41,12.8,1111122 
NERRS,ioos:station:NOAA.NERRS:gndbhwq:1,2015-05-06T11:00:00Z,30.4178,-88.4054,1.47,12.8,1111122 
NERRS,ioos:station:NOAA.NERRS:gndbhwq:1,2015-05-06T12:00:00Z,30.4178,-88.4054,1.53,12.9,1111122 
NERRS,ioos:station:NOAA.NERRS:gndbhwq:1,2015-05-06T13:00:00Z,30.4178,-88.4054,1.61,12.9,1111122 
NERRS,ioos:station:NOAA.NERRS:gndbhwq:1,2015-05-06T14:00:00Z,30.4178,-88.4054,1.67,12.9,1111122 
NERRS,ioos:station:NOAA.NERRS:gndbhwq:1,2015-05-06T15:00:00Z,30.4178,-88.4054,1.71,13.0,1111122 
NERRS,ioos:station:NOAA.NERRS:gndbhwq:1,2015-05-06T16:00:00Z,30.4178,-88.4054,1.74,13.0,1111122 
NERRS,ioos:station:NOAA.NERRS:gndbhwq:1,2015-05-06T17:00:00Z,30.4178,-88.4054,1.72,12.8,1111122 
NERRS,ioos:station:NOAA.NERRS:gndbhwq:1,2015-05-06T18:00:00Z,30.4178,-88.4054,1.66,12.6,1111122 
NERRS,ioos:station:NOAA.NERRS:gndbhwq:1,2015-05-06T19:00:00Z,30.4178,-88.4054,1.63,12.5,1111122 
NERRS,ioos:station:NOAA.NERRS:gndbhwq:1,2015-05-06T20:00:00Z,30.4178,-88.4054,1.59,12.2,1111122 
NERRS,ioos:station:NOAA.NERRS:gndbhwq:1,2015-05-06T21:00:00Z,30.4178,-88.4054,1.48,12.0,1111122 
NERRS,ioos:station:NOAA.NERRS:gndbhwq:1,2015-05-06T22:00:00Z,30.4178,-88.4054,1.37,11.7,1111122 
NERRS,ioos:station:NOAA.NERRS:gndbhwq:1,2015-05-06T23:00:00Z,30.4178,-88.4054,1.26,11.2,1111122 
NERRS,ioos:station:NOAA.NERRS:gndbhwq:1,2015-05-07T00:00:00Z,30.4178,-88.4054,1.19,11.4,1111122 
NERRS,ioos:station:NOAA.NERRS:gndbhwq:1,2015-05-07T01:00:00Z,30.4178,-88.4054,1.19,11.6,1111122 
NERRS,ioos:station:NOAA.NERRS:gndbhwq:1,2015-05-07T02:00:00Z,30.4178,-88.4054,1.16,12.1,1111122 
NERRS,ioos:station:NOAA.NERRS:gndbhwq:1,2015-05-07T03:00:00Z,30.4178,-88.4054,1.18,11.9,1111122 
NERRS,ioos:station:NOAA.NERRS:gndbhwq:1,2015-05-07T04:00:00Z,30.4178,-88.4054,1.14,11.5,1111122 
NERRS,ioos:station:NOAA.NERRS:gndbhwq:1,2015-05-07T05:00:00Z,30.4178,-88.4054,1.24,11.7,1111122 
NERRS,ioos:station:NOAA.NERRS:gndbhwq:1,2015-05-07T06:00:00Z,30.4178,-88.4054,1.21,11.8,1111122 
NERRS,ioos:station:NOAA.NERRS:gndbhwq:1,2015-05-07T07:00:00Z,30.4178,-88.4054,1.28,11.9,1111122 
NERRS,ioos:station:NOAA.NERRS:gndbhwq:1,2015-05-07T08:00:00Z,30.4178,-88.4054,1.32,12.1,1111122 
NERRS,ioos:station:NOAA.NERRS:gndbhwq:1,2015-05-07T09:00:00Z,30.4178,-88.4054,1.34,12.2,1111122 
NERRS,ioos:station:NOAA.NERRS:gndbhwq:1,2015-05-07T10:00:00Z,30.4178,-88.4054,1.39,12.3,1111122 
NERRS,ioos:station:NOAA.NERRS:gndbhwq:1,2015-05-07T11:00:00Z,30.4178,-88.4054,1.43,12.3,1111122 
NERRS,ioos:station:NOAA.NERRS:gndbhwq:1,2015-05-07T12:00:00Z,30.4178,-88.4054,1.49,12.4,1111122 
NERRS,ioos:station:NOAA.NERRS:gndbhwq:1,2015-05-07T13:00:00Z,30.4178,-88.4054,1.54,12.5,1111122 
NERRS,ioos:station:NOAA.NERRS:gndbhwq:1,2015-05-07T14:00:00Z,30.4178,-88.4054,1.61,12.5,1111122 
NERRS,ioos:station:NOAA.NERRS:gndbhwq:1,2015-05-07T15:00:00Z,30.4178,-88.4054,1.68,12.6,1111122 
NERRS,ioos:station:NOAA.NERRS:gndbhwq:1,2015-05-07T16:00:00Z,30.4178,-88.4054,1.71,12.6,1111122 
NERRS,ioos:station:NOAA.NERRS:gndbhwq:1,2015-05-07T17:00:00Z,30.4178,-88.4054,1.68,12.4,1111122 
NERRS,ioos:station:NOAA.NERRS:gndbhwq:1,2015-05-07T18:00:00Z,30.4178,-88.4054,1.6,12.3,1111122 
NERRS,ioos:station:NOAA.NERRS:gndbhwq:1,2015-05-07T19:00:00Z,30.4178,-88.4054,1.55,12.1,1111122 
NERRS,ioos:station:NOAA.NERRS:gndbhwq:1,2015-05-07T20:00:00Z,30.4178,-88.4054,1.49,12.0,1111122 
NERRS,ioos:station:NOAA.NERRS:gndbhwq:1,2015-05-07T21:00:00Z,30.4178,-88.4054,1.44,12.1,1111122 
NERRS,ioos:station:NOAA.NERRS:gndbhwq:1,2015-05-07T22:00:00Z,30.4178,-88.4054,1.32,11.6,1111122 
NERRS,ioos:station:NOAA.NERRS:gndbhwq:1,2015-05-07T23:00:00Z,30.4178,-88.4054,1.22,11.5,1111122 
NERRS,ioos:station:NOAA.NERRS:gndbhwq:1,2015-05-08T00:00:00Z,30.4178,-88.4054,1.14,11.3,1111122 
NERRS,ioos:station:NOAA.NERRS:gndbhwq:1,2015-05-08T01:00:00Z,30.4178,-88.4054,1.07,11.2,1111122 
NERRS,ioos:station:NOAA.NERRS:gndbhwq:1,2015-05-08T02:00:00Z,30.4178,-88.4054,1.07,11.2,1111122 
NERRS,ioos:station:NOAA.NERRS:gndbhwq:1,2015-05-08T03:00:00Z,30.4178,-88.4054,1.06,11.3,1111122 
NERRS,ioos:station:NOAA.NERRS:gndbhwq:1,2015-05-08T04:00:00Z,30.4178,-88.4054,1.08,11.3,1111122 
NERRS,ioos:station:NOAA.NERRS:gndbhwq:1,2015-05-08T04:45:00Z,30.4178,-88.4054,1.1,11.4,1111122 
NERRS,ioos:station:NOAA.NERRS:gndbhwq:1,2015-05-08T06:00:00Z,30.4178,-88.4054,1.15,11.7,1111122 
NERRS,ioos:station:NOAA.NERRS:gndbhwq:1,2015-05-08T07:00:00Z,30.4178,-88.4054,1.11,11.7,1111122 
NERRS,ioos:station:NOAA.NERRS:gndbhwq:1,2015-05-08T08:00:00Z,30.4178,-88.4054,1.21,11.9,1111122 
NERRS,ioos:station:NOAA.NERRS:gndbhwq:1,2015-05-08T09:00:00Z,30.4178,-88.4054,1.26,11.8,1111122 
NERRS,ioos:station:NOAA.NERRS:gndbhwq:1,2015-05-08T10:00:00Z,30.4178,-88.4054,1.32,11.9,1111122 
NERRS,ioos:station:NOAA.NERRS:gndbhwq:1,2015-05-08T11:00:00Z,30.4178,-88.4054,1.36,11.9,1111122 
NERRS,ioos:station:NOAA.NERRS:gndbhwq:1,2015-05-08T12:00:00Z,30.4178,-88.4054,1.41,12.0,1111122 
NERRS,ioos:station:NOAA.NERRS:gndbhwq:1,2015-05-08T13:00:00Z,30.4178,-88.4054,1.46,12.1,1111122 
NERRS,ioos:station:NOAA.NERRS:gndbhwq:1,2015-05-08T14:00:00Z,30.4178,-88.4054,1.54,12.1,1111122 
NERRS,ioos:station:NOAA.NERRS:gndbhwq:1,2015-05-08T15:00:00Z,30.4178,-88.4054,1.6,12.2,1111122 
NERRS,ioos:station:NOAA.NERRS:gndbhwq:1,2015-05-08T16:00:00Z,30.4178,-88.4054,1.65,12.2,1111122 
NERRS,ioos:station:NOAA.NERRS:gndbhwq:1,2015-05-08T17:00:00Z,30.4178,-88.4054,1.64,12.2,1111122 
NERRS,ioos:station:NOAA.NERRS:gndbhwq:1,2015-05-08T18:00:00Z,30.4178,-88.4054,1.61,12.2,1111122 
NERRS,ioos:station:NOAA.NERRS:gndbhwq:1,2015-05-08T19:00:00Z,30.4178,-88.4054,1.58,12.1,1111122 
NERRS,ioos:station:NOAA.NERRS:gndbhwq:1,2015-05-08T20:00:00Z,30.4178,-88.4054,1.51,12.0,1111122 
NERRS,ioos:station:NOAA.NERRS:gndbhwq:1,2015-05-08T21:00:00Z,30.4178,-88.4054,1.44,11.8,1111122 
NERRS,ioos:station:NOAA.NERRS:gndbhwq:1,2015-05-08T22:00:00Z,30.4178,-88.4054,1.38,11.7,1111122 
NERRS,ioos:station:NOAA.NERRS:gndbhwq:1,2015-05-08T23:00:00Z,30.4178,-88.4054,1.25,11.6,1111122 
NERRS,ioos:station:NOAA.NERRS:gndbhwq:1,2015-05-09T00:00:00Z,30.4178,-88.4054,1.17,11.4,1111122 
NERRS,ioos:station:NOAA.NERRS:gndbhwq:1,2015-05-09T01:00:00Z,30.4178,-88.4054,1.13,11.5,1111122 
NERRS,ioos:station:NOAA.NERRS:gndbhwq:1,2015-05-09T02:00:00Z,30.4178,-88.4054,1.05,11.5,1111122 
NERRS,ioos:station:NOAA.NERRS:gndbhwq:1,2015-05-09T03:00:00Z,30.4178,-88.4054,1.06,11.4,1111122 
NERRS,ioos:station:NOAA.NERRS:gndbhwq:1,2015-05-09T04:00:00Z,30.4178,-88.4054,1.06,11.5,1111122 
NERRS,ioos:station:NOAA.NERRS:gndbhwq:1,2015-05-09T05:00:00Z,30.4178,-88.4054,1.04,11.5,1111122 
NERRS,ioos:station:NOAA.NERRS:gndbhwq:1,2015-05-09T06:00:00Z,30.4178,-88.4054,1.05,11.5,1111122 
NERRS,ioos:station:NOAA.NERRS:gndbhwq:1,2015-05-09T07:00:00Z,30.4178,-88.4054,1.08,11.6,1111122 
NERRS,ioos:station:NOAA.NERRS:gndbhwq:1,2015-05-09T08:00:00Z,30.4178,-88.4054,1.08,11.6,1111122 
NERRS,ioos:station:NOAA.NERRS:gndbhwq:1,2015-05-09T09:00:00Z,30.4178,-88.4054,1.19,11.8,1111122 
NERRS,ioos:station:NOAA.NERRS:gndbhwq:1,2015-05-09T10:00:00Z,30.4178,-88.4054,1.19,11.8,1111122 
NERRS,ioos:station:NOAA.NERRS:gndbhwq:1,2015-05-09T11:00:00Z,30.4178,-88.4054,1.25,11.9,1111122 
NERRS,ioos:station:NOAA.NERRS:gndbhwq:1,2015-05-09T12:00:00Z,30.4178,-88.4054,1.3,12.1,1111122 
NERRS,ioos:station:NOAA.NERRS:gndbhwq:1,2015-05-09T13:00:00Z,30.4178,-88.4054,1.36,12.1,1111122 
NERRS,ioos:station:NOAA.NERRS:gndbhwq:1,2015-05-09T14:00:00Z,30.4178,-88.4054,1.42,12.1,1111122 
NERRS,ioos:station:NOAA.NERRS:gndbhwq:1,2015-05-09T15:00:00Z,30.4178,-88.4054,1.47,12.1,1111122 
NERRS,ioos:station:NOAA.NERRS:gndbhwq:1,2015-05-09T16:00:00Z,30.4178,-88.4054,1.48,12.1,1111122 
NERRS,ioos:station:NOAA.NERRS:gndbhwq:1,2015-05-09T17:00:00Z,30.4178,-88.4054,1.47,12.0,1111122 
NERRS,ioos:station:NOAA.NERRS:gndbhwq:1,2015-05-09T18:00:00Z,30.4178,-88.4054,1.47,11.9,1111122 
NERRS,ioos:station:NOAA.NERRS:gndbhwq:1,2015-05-09T19:00:00Z,30.4178,-88.4054,1.42,11.8,1111122 
NERRS,ioos:station:NOAA.NERRS:gndbhwq:1,2015-05-09T20:00:00Z,30.4178,-88.4054,1.41,11.6,1111122 
NERRS,ioos:station:NOAA.NERRS:gndbhwq:1,2015-05-09T21:00:00Z,30.4178,-88.4054,1.33,11.4,1111122 
NERRS,ioos:station:NOAA.NERRS:gndbhwq:1,2015-05-09T22:00:00Z,30.4178,-88.4054,1.31,11.2,1111122 
NERRS,ioos:station:NOAA.NERRS:gndbhwq:1,2015-05-09T23:00:00Z,30.4178,-88.4054,1.25,11.2,1111122 
NERRS,ioos:station:NOAA.NERRS:gndbhwq:1,2015-05-10T00:00:00Z,30.4178,-88.4054,1.17,11.0,1111122 
NERRS,ioos:station:NOAA.NERRS:gndbhwq:1,2015-05-10T01:00:00Z,30.4178,-88.4054,1.09,10.9,1111122 
NERRS,ioos:station:NOAA.NERRS:gndbhwq:1,2015-05-10T02:00:00Z,30.4178,-88.4054,1.03,10.8,1111122 
NERRS,ioos:station:NOAA.NERRS:gndbhwq:1,2015-05-10T03:00:00Z,30.4178,-88.4054,1.02,10.8,1111122 
NERRS,ioos:station:NOAA.NERRS:gndbhwq:1,2015-05-10T04:00:00Z,30.4178,-88.4054,1.03,10.8,1111122 
NERRS,ioos:station:NOAA.NERRS:gndbhwq:1,2015-05-10T05:00:00Z,30.4178,-88.4054,1.02,10.8,1111122 
NERRS,ioos:station:NOAA.NERRS:gndbhwq:1,2015-05-10T06:00:00Z,30.4178,-88.4054,1.04,10.8,1111122 
NERRS,ioos:station:NOAA.NERRS:gndbhwq:1,2015-05-10T07:00:00Z,30.4178,-88.4054,1.05,10.9,1111122 
NERRS,ioos:station:NOAA.NERRS:gndbhwq:1,2015-05-10T08:00:00Z,30.4178,-88.4054,1.08,11.0,1111122 
NERRS,ioos:station:NOAA.NERRS:gndbhwq:1,2015-05-10T09:00:00Z,30.4178,-88.4054,1.1,11.1,1111122 
NERRS,ioos:station:NOAA.NERRS:gndbhwq:1,2015-05-10T10:00:00Z,30.4178,-88.4054,1.19,11.2,1111122 
NERRS,ioos:station:NOAA.NERRS:gndbhwq:1,2015-05-10T11:00:00Z,30.4178,-88.4054,1.24,11.1,1111122 
NERRS,ioos:station:NOAA.NERRS:gndbhwq:1,2015-05-10T12:00:00Z,30.4178,-88.4054,1.31,11.5,1111122 
NERRS,ioos:station:NOAA.NERRS:gndbhwq:1,2015-05-10T13:00:00Z,30.4178,-88.4054,1.38,11.6,1111122 
NERRS,ioos:station:NOAA.NERRS:gndbhwq:1,2015-05-10T14:00:00Z,30.4178,-88.4054,1.43,11.6,1111122 
NERRS,ioos:station:NOAA.NERRS:gndbhwq:1,2015-05-10T15:00:00Z,30.4178,-88.4054,1.44,11.6,1111122 
NERRS,ioos:station:NOAA.NERRS:gndbhwq:1,2015-05-10T16:00:00Z,30.4178,-88.4054,1.48,11.5,1111122 
NERRS,ioos:station:NOAA.NERRS:gndbhwq:1,2015-05-10T17:00:00Z,30.4178,-88.4054,1.52,11.4,1111122 
NERRS,ioos:station:NOAA.NERRS:gndbhwq:1,2015-05-10T18:00:00Z,30.4178,-88.4054,1.55,11.5,1111122 
NERRS,ioos:station:NOAA.NERRS:gndbhwq:1,2015-05-10T19:00:00Z,30.4178,-88.4054,1.5,11.1,1111122 
NERRS,ioos:station:NOAA.NERRS:gndbhwq:1,2015-05-10T20:00:00Z,30.4178,-88.4054,1.45,11.0,1111122 
NERRS,ioos:station:NOAA.NERRS:gndbhwq:1,2015-05-10T21:00:00Z,30.4178,-88.4054,1.42,10.8,1111122 
NERRS,ioos:station:NOAA.NERRS:gndbhwq:1,2015-05-10T22:00:00Z,30.4178,-88.4054,1.4,10.7,1111122 
NERRS,ioos:station:NOAA.NERRS:gndbhwq:1,2015-05-10T23:00:00Z,30.4178,-88.4054,1.37,10.6,1111122 
NERRS,ioos:station:NOAA.NERRS:gndbhwq:1,2015-05-11T00:00:00Z,30.4178,-88.4054,1.29,10.5,1111122 
NERRS,ioos:station:NOAA.NERRS:gndbhwq:1,2015-05-11T01:00:00Z,30.4178,-88.4054,1.23,10.5,1111122 
NERRS,ioos:station:NOAA.NERRS:gndbhwq:1,2015-05-11T02:00:00Z,30.4178,-88.4054,1.19,10.4,1111122 
NERRS,ioos:station:NOAA.NERRS:gndbhwq:1,2015-05-11T03:00:00Z,30.4178,-88.4054,1.15,10.5,1111122 
NERRS,ioos:station:NOAA.NERRS:gndbhwq:1,2015-05-11T04:00:00Z,30.4178,-88.4054,1.11,10.5,1111122 
NERRS,ioos:station:NOAA.NERRS:gndbhwq:1,2015-05-11T06:00:00Z,30.4178,-88.4054,1.11,10.5,1111122 
NERRS,ioos:station:NOAA.NERRS:gndbhwq:1,2015-05-11T07:00:00Z,30.4178,-88.4054,1.13,10.8,1111122 